• en France
  • Liste des pays
  • À 7 jours
  • Température de l'eau
  • Carte satellitaire
  • Carte météo
  • Widgets météo
  • user-avatar
    Se connecter

    Météo par heure à Madingou

    Ce jour, 24 Mai, Jeudi

    Heure Température Précipitation Vent Pression Humidité
    00:00 +26°C° 0 mm 1 m/s 746 mmHg 96%
    01:00 +25°C° 0 mm 1 m/s 746 mmHg 97%
    02:00 +25°C° 0 mm 1 m/s 746 mmHg 97%
    03:00 +25°C° 0 mm 1 m/s 746 mmHg 97%
    04:00 +25°C° 0 mm 1 m/s 745 mmHg 97%
    05:00 +25°C° 0 mm 1 m/s 746 mmHg 96%
    06:00 +25°C° 0 mm 1 m/s 746 mmHg 95%
    07:00 +25°C° 0 mm 1 m/s 746 mmHg 94%
    08:00 +27°C° 0 mm 1 m/s 746 mmHg 88%
    09:00 +28°C° 0 mm 1 m/s 746 mmHg 83%
    10:00 +29°C° 0 mm 1 m/s 747 mmHg 77%
    11:00 +31°C° 0 mm 1 m/s 746 mmHg 72%
    12:00 +32°C° 0 mm 1 m/s 746 mmHg 66%
    13:00 +34°C° 0 mm 1 m/s 745 mmHg 61%
    14:00 +33°C° 0 mm 1 m/s 744 mmHg 60%
    15:00 +33°C° 0 mm 1 m/s 744 mmHg 60%
    16:00 +33°C° 0 mm 1 m/s 743 mmHg 60%
    17:00 +32°C° 0 mm 1 m/s 743 mmHg 66%
    18:00 +30°C° 0 mm 1 m/s 744 mmHg 73%
    19:00 +28°C° 0 mm 1 m/s 744 mmHg 80%
    20:00 +28°C° 0,1 mm 1 m/s 744 mmHg 83%
    21:00 +27°C° 0,1 mm 1 m/s 744 mmHg 86%
    22:00 +26°C° 0,1 mm 1 m/s 745 mmHg 89%
    23:00 +26°C° 0 mm 1 m/s 745 mmHg 91%

    Demain, 25 Mai, Vendredi

    Heure Température Précipitation Vent Pression Humidité
    00:00 +26°C° 0 mm 1 m/s 745 mmHg 93%
    01:00 +25°C° 0 mm 1 m/s 744 mmHg 95%
    02:00 +25°C° 0 mm 1 m/s 744 mmHg 96%
    03:00 +25°C° 0 mm 1 m/s 744 mmHg 96%
    04:00 +24°C° 0 mm 1 m/s 743 mmHg 97%
    05:00 +25°C° 0 mm 1 m/s 744 mmHg 96%
    06:00 +25°C° 0 mm 1 m/s 744 mmHg 95%
    07:00 +25°C° 0 mm 1 m/s 745 mmHg 93%
    08:00 +26°C° 0 mm 1 m/s 745 mmHg 90%
    09:00 +27°C° 0 mm 1 m/s 746 mmHg 87%
    10:00 +27°C° 0 mm 1 m/s 746 mmHg 84%
    11:00 +29°C° 0 mm 1 m/s 745 mmHg 79%
    12:00 +30°C° 0 mm 1 m/s 745 mmHg 74%
    13:00 +31°C° 0 mm 1 m/s 744 mmHg 69%
    14:00 +31°C° 0 mm 1 m/s 743 mmHg 68%
    15:00 +32°C° 0 mm 1 m/s 743 mmHg 66%
    16:00 +32°C° 0 mm 1 m/s 742 mmHg 65%
    17:00 +30°C° 0,1 mm 1 m/s 743 mmHg 72%
    18:00 +29°C° 0,1 mm 1 m/s 743 mmHg 79%
    19:00 +27°C° 0,1 mm 1 m/s 743 mmHg 86%
    20:00 +27°C° 0,2 mm 1 m/s 744 mmHg 88%
    21:00 +26°C° 0,2 mm 1 m/s 745 mmHg 91%
    22:00 +26°C° 0,2 mm 1 m/s 745 mmHg 93%
    23:00 +25°C° 0 mm 1 m/s 745 mmHg 94%

    Après-demain, 26 Mai, Samedi

    Heure Température Précipitation Vent Pression Humidité
    00:00 +25°C° 0 mm 1 m/s 745 mmHg 95%
    01:00 +25°C° 0 mm 1 m/s 744 mmHg 96%
    02:00 +24°C° 0 mm 1 m/s 744 mmHg 97%
    03:00 +24°C° 0 mm 1 m/s 744 mmHg 97%
    04:00 +24°C° 0 mm 1 m/s 743 mmHg 98%
    05:00 +24°C° 0 mm 1 m/s 744 mmHg 96%
    06:00 +24°C° 0 mm 1 m/s 744 mmHg 95%
    07:00 +25°C° 0 mm 1 m/s 745 mmHg 94%
    08:00 +26°C° 0 mm 1 m/s 745 mmHg 89%
    09:00 +27°C° 0 mm 1 m/s 745 mmHg 84%
    10:00 +28°C° 0 mm 1 m/s 746 mmHg 79%
    11:00 +30°C° 0 mm 1 m/s 745 mmHg 72%
    12:00 +32°C° 0 mm 1 m/s 744 mmHg 66%
    13:00 +33°C° 0 mm 1 m/s 744 mmHg 60%
    14:00 +33°C° 0 mm 1 m/s 743 mmHg 60%
    15:00 +33°C° 0 mm 1 m/s 743 mmHg 59%
    16:00 +33°C° 0 mm 1 m/s 742 mmHg 59%
    17:00 +32°C° 0,1 mm 1 m/s 743 mmHg 65%
    18:00 +30°C° 0,1 mm 1 m/s 743 mmHg 71%
    19:00 +28°C° 0,1 mm 1 m/s 744 mmHg 77%
    20:00 +28°C° 0 mm 1 m/s 745 mmHg 80%
    21:00 +27°C° 0 mm 1 m/s 745 mmHg 83%
    22:00 +26°C° 0 mm 1 m/s 746 mmHg 86%
    23:00 +26°C° 0 mm 1 m/s 745 mmHg 88%

    27 Mai, Dimanche

    Heure Température Précipitation Vent Pression Humidité
    00:00 +25°C° 0 mm 1 m/s 745 mmHg 91%
    01:00 +25°C° 0 mm 1 m/s 745 mmHg 93%
    02:00 +25°C° 0 mm 1 m/s 745 mmHg 94%
    03:00 +24°C° 0 mm 1 m/s 745 mmHg 95%
    04:00 +24°C° 0 mm 1 m/s 744 mmHg 95%
    05:00 +24°C° 0 mm 1 m/s 745 mmHg 95%
    06:00 +24°C° 0 mm 1 m/s 745 mmHg 94%
    07:00 +25°C° 0 mm 1 m/s 746 mmHg 93%
    08:00 +27°C° 0 mm 1 m/s 746 mmHg 86%
    09:00 +29°C° 0 mm 1 m/s 746 mmHg 78%
    10:00 +31°C° 0 mm 1 m/s 747 mmHg 71%
    11:00 +32°C° 0 mm 1 m/s 746 mmHg 66%
    12:00 +33°C° 0 mm 1 m/s 745 mmHg 61%
    13:00 +35°C° 0 mm 1 m/s 744 mmHg 56%
    14:00 +34°C° 0 mm 1 m/s 744 mmHg 56%
    15:00 +34°C° 0 mm 1 m/s 743 mmHg 55%
    16:00 +32°C° 0 mm 0 m/s 743 mmHg 55%
    17:00 +30°C° 0 mm 0 m/s 744 mmHg 62%
    18:00 +31°C° 0 mm 1 m/s 744 mmHg 68%
    19:00 +29°C° 0 mm 1 m/s 745 mmHg 74%
    20:00 +28°C° 0,1 mm 1 m/s 745 mmHg 78%
    21:00 +27°C° 0,1 mm 1 m/s 746 mmHg 82%
    22:00 +27°C° 0,1 mm 1 m/s 746 mmHg 85%
    23:00 +26°C° 0 mm 1 m/s 746 mmHg 88%

    28 Mai, Lundi

    Heure Température Précipitation Vent Pression Humidité
    00:00 +26°C° 0 mm 1 m/s 746 mmHg 91%
    01:00 +25°C° 0 mm 1 m/s 746 mmHg 93%
    02:00 +25°C° 0 mm 1 m/s 746 mmHg 94%
    03:00 +24°C° 0 mm 1 m/s 746 mmHg 95%
    04:00 +24°C° 0 mm 1 m/s 746 mmHg 96%
    05:00 +24°C° 0 mm 1 m/s 746 mmHg 95%
    06:00 +24°C° 0 mm 1 m/s 747 mmHg 94%
    07:00 +25°C° 0 mm 1 m/s 747 mmHg 93%
    08:00 +25°C° 0 mm 1 m/s 748 mmHg 89%
    09:00 +26°C° 0 mm 1 m/s 748 mmHg 85%
    10:00 +27°C° 0 mm 1 m/s 748 mmHg 81%
    11:00 +29°C° 0 mm 2 m/s 747 mmHg 76%
    12:00 +30°C° 0 mm 2 m/s 746 mmHg 71%
    13:00 +31°C° 0 mm 2 m/s 746 mmHg 66%
    14:00 +31°C° 0,1 mm 2 m/s 745 mmHg 65%
    15:00 +32°C° 0,1 mm 2 m/s 745 mmHg 65%
    16:00 +32°C° 0,1 mm 2 m/s 745 mmHg 65%
    17:00 +30°C° 0,7 mm 1 m/s 745 mmHg 73%
    18:00 +28°C° 0,7 mm 1 m/s 746 mmHg 80%
    19:00 +27°C° 0,7 mm 1 m/s 746 mmHg 88%
    20:00 +26°C° 0 mm 1 m/s 747 mmHg 90%
    21:00 +26°C° 0 mm 1 m/s 747 mmHg 92%
    22:00 +25°C° 0 mm 1 m/s 747 mmHg 94%
    23:00 +25°C° 0 mm 1 m/s 747 mmHg 95%

    29 Mai, Mardi

    Heure Température Précipitation Vent Pression Humidité
    00:00 +25°C° 0 mm 1 m/s 746 mmHg 96%
    01:00 +24°C° 0 mm 1 m/s 746 mmHg 97%
    02:00 +24°C° 0 mm 1 m/s 746 mmHg 97%
    03:00 +24°C° 0 mm 1 m/s 746 mmHg 97%
    04:00 +24°C° 0 mm 1 m/s 746 mmHg 97%
    05:00 +24°C° 0 mm 1 m/s 746 mmHg 96%
    06:00 +24°C° 0 mm 1 m/s 746 mmHg 95%
    07:00 +24°C° 0 mm 1 m/s 747 mmHg 94%
    08:00 +26°C° 0 mm 1 m/s 747 mmHg 85%
    09:00 +27°C° 0 mm 1 m/s 747 mmHg 76%
    10:00 +29°C° 0 mm 1 m/s 748 mmHg 67%
    11:00 +31°C° 0 mm 1 m/s 747 mmHg 62%
    12:00 +32°C° 0 mm 1 m/s 746 mmHg 57%
    13:00 +34°C° 0 mm 1 m/s 745 mmHg 52%
    14:00 +34°C° 0 mm 1 m/s 745 mmHg 52%
    15:00 +34°C° 0 mm 1 m/s 744 mmHg 52%
    16:00 +34°C° 0 mm 1 m/s 744 mmHg 52%
    17:00 +32°C° 0 mm 1 m/s 744 mmHg 58%
    18:00 +30°C° 0 mm 1 m/s 744 mmHg 64%
    19:00 +26°C° 0 mm 0 m/s 745 mmHg 69%
    20:00 +28°C° 0 mm 1 m/s 745 mmHg 72%
    21:00 +27°C° 0 mm 1 m/s 746 mmHg 75%
    22:00 +27°C° 0 mm 1 m/s 746 mmHg 77%
    23:00 +26°C° 0 mm 1 m/s 746 mmHg 81%
    Voir plus